McCook, NE

12:06 PM CDT on September 27, 2016 (GMT -0500)
McCook Municipal

Weather History for KMCK - July, 2013

Change the Weather History Date:

Saturday, July 6, 2013

  Actual Average Record
Temperature  
Mean Temperature 87 °F 76 °F  
Max Temperature 103 °F 90 °F 111 °F (2001)
Min Temperature 71 °F 61 °F 48 °F (1924)
Cooling Degree Days 22    
Growing Degree Days 37 (Base 50)    
Moisture  
Dew Point 56 °F    
Average Humidity 39    
Maximum Humidity 59    
Minimum Humidity 20    
Precipitation  
Precipitation 0.00 in 0.10 in 1.42 in (1969)
Month to date precipitation 0.08 0.62  
Year to date precipitation 6.07 11.94  
Sea Level Pressure  
Sea Level Pressure 29.68 in    
Wind  
Wind Speed 14 mph (SW)    
Max Wind Speed 21 mph    
Max Gust Speed 31 mph    
Visibility 10 miles    
Events      
T = Trace of Precipitation, MM = Missing Value Source: NWS Daily Summary

Daily Weather History Graph

Daily Weather History Graph

Search for Another Location

Airport or City:

Trip Planner

Search our weather history database for the weather conditions in past years. The results will help you decide how hot, cold, wet, or windy it might be!

Date:

Astronomy

Jul. 06, 2013 Rise Set
Actual Time 6:19 AM CDT 9:14 PM CDT
Civil Twilight 5:46 AM CDT 9:47 PM CDT
Nautical Twilight 5:05 AM CDT 10:28 PM CDT
Astronomical Twilight 4:17 AM CDT 11:15 PM CDT
Moon 5:06 AM CDT (7/6) 7:57 PM CDT (7/6)
Length of Visible Light 16h 00m
Length of Day
14h 55m
Waning Crescent, 2% of the Moon is Illuminated
Jul 6
Waning Crescent
Jul 8
New
Jul 15
First Quarter
Jul 22
Full
Jul 29
Last Quarter

Hourly Weather History & Observations

Time (CDT) Temp. Heat Index Dew Point Humidity Pressure Visibility Wind Dir Wind Speed Gust Speed Precip Events Conditions
12:53 AM 79.0 °F - 54.0 °F 42% 29.69 in 10.0 mi SSE 20.7 mph 31.1 mph N/A   Scattered Clouds
1:53 AM 77.0 °F - 55.0 °F 47% 29.67 in 10.0 mi SSE 18.4 mph 31.1 mph N/A   Clear
2:53 AM 78.1 °F - 54.0 °F 43% 29.65 in 10.0 mi South 18.4 mph 28.8 mph N/A   Clear
3:53 AM 75.9 °F - 55.0 °F 48% 29.67 in 10.0 mi South 17.3 mph 25.3 mph N/A   Clear
4:53 AM 73.9 °F - 55.9 °F 53% 29.67 in 10.0 mi SSE 17.3 mph 27.6 mph N/A   Clear
5:53 AM 73.0 °F - 55.9 °F 55% 29.68 in 10.0 mi SSE 15.0 mph 21.9 mph N/A   Clear
6:53 AM 72.0 °F - 55.9 °F 57% 29.68 in 9.0 mi South 13.8 mph 19.6 mph N/A   Clear
7:53 AM 72.0 °F - 57.0 °F 59% 29.70 in 9.0 mi Variable 3.5 mph - N/A   Clear
8:53 AM 77.0 °F - 55.0 °F 47% 29.71 in 10.0 mi South 13.8 mph 20.7 mph N/A   Clear
9:53 AM 82.0 °F 81.6 °F 55.9 °F 41% 29.70 in 10.0 mi South 13.8 mph - N/A   Clear
10:53 AM 87.1 °F 86.1 °F 57.9 °F 37% 29.69 in 10.0 mi SSW 11.5 mph - N/A   Clear
11:53 AM 90.0 °F 88.6 °F 57.0 °F 33% 29.68 in 10.0 mi SW 9.2 mph - N/A   Clear
12:53 PM 95.0 °F 93.7 °F 57.0 °F 28% 29.67 in 10.0 mi West 11.5 mph - N/A   Clear
1:53 PM 96.1 °F 94.8 °F 57.0 °F 27% 29.67 in 10.0 mi West 9.2 mph - N/A   Clear
2:53 PM 99.0 °F 97.7 °F 55.9 °F 24% 29.66 in 10.0 mi NW 9.2 mph - N/A   Clear
3:53 PM 102.0 °F 100.1 °F 54.0 °F 20% 29.65 in 10.0 mi West 6.9 mph - N/A   Clear
4:53 PM 100.9 °F 99.1 °F 54.0 °F 21% 29.65 in 10.0 mi NNW 13.8 mph 17.3 mph N/A   Clear
5:53 PM 100.0 °F 97.9 °F 53.1 °F 21% 29.65 in 10.0 mi WNW 4.6 mph - N/A   Clear
6:53 PM 99.0 °F 96.9 °F 54.0 °F 22% 29.65 in 10.0 mi NW 8.1 mph - N/A   Clear
7:53 PM 97.0 °F 95.0 °F 55.0 °F 24% 29.65 in 10.0 mi West 4.6 mph - N/A   Clear
8:53 PM 91.0 °F 90.9 °F 61.0 °F 36% 29.66 in 10.0 mi NNE 15.0 mph 20.7 mph N/A   Clear
9:53 PM 82.9 °F 83.3 °F 61.0 °F 47% 29.69 in 10.0 mi North 5.8 mph - N/A   Clear
10:53 PM 81.0 °F 81.6 °F 60.1 °F 49% 29.70 in 10.0 mi ENE 5.8 mph - N/A   Clear
11:53 PM 79.0 °F - 61.0 °F 54% 29.73 in 10.0 mi South 5.8 mph - N/A   Clear